星链-30587 (STARLINK-30587 )

导读

STARLINK-30587是美国太空探索技术公司SpaceX星链(Starlink)星座的成员,于2023年10月13日发射升空,NORAD编号58064,国际编号2023-158P。该卫星运行在近地点565.7公里、远地点566.8公里的近地轨道,轨道倾角43.0°,环绕地球一周约95.8分钟,属于低轨通信卫星,核心任务是为全球范围提供高速卫星互联网接入服务。

基本信息
目录编号:
58064
目录名称:
STARLINK-30587
国际标识:
2023-158P
轨道中心:
EARTH
卫星名称:
星链-30587
卫星全名:
星链-30587 (STARLINK-30587 )
卫星状态:
在轨 (已飞行1064 天)
发射日期:
2023-10-13 UTC
国别 :
美国 (US)
星等 :
--
该卫星已列入 空间交会检测服务 Space Conjunction Data Service (SCDS) ,当前飞行风险评估等级: 高风险
轨道信息
数据来源 国际轨道数据
星历时间: 2026-09-11T03:15:24+0800
19小时前
查看轨道信息
半长轴: 6861.192km
偏心率: 0.0001586
轨道倾角: 43.005°
近地点辐角 260.635°
升交点赤经 61.362°
平近点角 99.432°
近地点: 481.966km
远地点: 484.144km
周期: 94.267分钟
每日圈数: 15.275781
详细信息
固有亮度:
5
最大亮度:
0.3
卫星平台:
Starlink v2.0 mini
覆盖范围:
全球
运营商:
太空探索技术公司
运营商所在国:
美国
制造商(研发单位):
太空探索技术公司
制造商所在国:
美国
使用方式:
暂无
卫星简介
星链(Starlink)计划是由太空探索技术公司(SpaceX)提出的一个巨型低轨卫星互联网星座项目,计划在2019年至2024年间在太空搭建由约1.2万颗卫星组成的“星链”网络,其中1584颗将部署在地球上空550千米处的近地轨道,并从2020年开始工作。该卫星仍在工作。
2D轨道图
3D轨道图
轨道高度分析图
轨道倾角分析图
轨道综合分析图
查看轨道综合分析图
交会数据列表
事件ID 空间交会对象 最接近时刻(TCA) 交会距离 交会风险概率(CRP) 交会风险指数(CRI) 操作
CDM_260913-040405-806406-656821
2026-09-13T
04:04:37+0000
0.367 km
远距离
1.837911E-4 高风险 0.8
CDM_260912-043702-880905-806422
OICETS (28809)
2026-09-12T
04:37:16+0000
1.230 km
极远距离
1.146269E-5 中风险 0.56
CDM_260913-080005-806406-656821
2026-09-13T
08:00:00+0000
1.477 km
极远距离
2.751291E-6 低风险 0.44
CDM_260913-093405-806406-656821
2026-09-13T
09:34:09+0000
2.365 km
极远距离
8.556076E-7 极低风险 0.34
CDM_260913-023005-806406-656821
2026-09-13T
02:30:28+0000
2.945 km
极远距离
6.27498E-7 极低风险 0.31
与全量物体交会距离演化趋势
与全量物体交会风险概率演化趋势